Aérodrome :
LOGIN :

S'inscrire | Disclaimer

   EN    FR    IT 

 










Légende :    VFR   VFR Marginal   IFR   IFR Intensif   IFR Très Intensif
Visi : 
Plafond : 
>= 8 km
>= 3000ft
5 à 8 km
1000 à 3000 ft
1500m à 5 km
500 à 1000 ft
800 à 1500m
200 à 500 ft
< 800m
< 200 ft
Symboles :   Orages  Brouillard  Fortes neiges  Fortes précipitations  Vent > 20 kt
SIGMETs :   Divers  Orages  Givrage  Turbulence  Onde Orograph.  Cendres Volcan.







- Altitude de l'aérodrome : 472 ft
- Code IATA : GME


UMGG - Gomel

DERNIER METAR :
  • 201900Z 21005MPS CAVOK M06/M09 Q1015 R28/CLRD// NOSIG

METARs EXPIRÉS :
  • 201800Z 20005MPS CAVOK M06/M09 Q1015 R28/CLRD// NOSIG
  • 201700Z 20005MPS CAVOK M06/M09 Q1015 R28/CLRD// NOSIG
  • 201630Z 20005MPS CAVOK M05/M09 Q1016 R28/CLRD// NOSIG

TAF TAF UMGG
Valide du 20 à 18h jusqu'au 21 à 18h UTC


201700Z 2018/2118 23006MPS 1200 BR BKN004
TEMPO 2018/2106 28006MPS 0500 FZFG VV003
FM210600 28006MPS 2000 BR OVC005
TEMPO 2113/2118 0300 FZFG VV002
Pas de NOTAMs connus pour ce terrain.



MET'MAP, la Météo Aéronautique d'un coup d'oeil ! - Copyright ORBIFLY Décembre 2007 - Disclaimer

ORBIFLY MET'MAP TEAM :

Programmation & Développement : Alexandra Zaïnal
Conception & Développement : Baudouin d'Aumeries
Co-Programmation & Développement : Marc-Olivier Méhu
Soutien technique & logistique : Manuel Goepfert

Contact : metmap@orbifly.com




SOURCES & CREDITS :

   NOAA